CYZ9015 ZHHH-ZSNJ

Flight info

Callsign CYZ9015
Flight time 0h 46m
Altitude 22600
Route BIVIP7S BIVIP R343 HFE HFE61F
Aircraft B738/M-SDE2E3FGHIRWXY/LB1

Departure

Time 2026-04-22 15:50
Airport Wuhan Tianhe International Airport (ZHHH)

Arrival

Time 2026-04-22 16:36
Airport Nanjing Lukou International Airport (ZSNJ)
Time Latitude Longitude Altitude Speed Heading
2026-04-22 15:25 30.78888 114.21950 116 ft 0 kts 131°
2026-04-22 15:38 30.78893 114.21943 113 ft 4 kts 131°
2026-04-22 15:39 30.78911 114.21919 111 ft 4 kts 131°
2026-04-22 15:39 30.78926 114.21899 112 ft 4 kts 124°
2026-04-22 15:39 30.78932 114.21874 113 ft 4 kts 70°
2026-04-22 15:39 30.78918 114.21849 113 ft 4 kts 43°
2026-04-22 15:40 30.78908 114.21840 113 ft 0 kts 41°
2026-04-22 15:42 30.78911 114.21842 113 ft 2 kts 43°
2026-04-22 15:42 30.78928 114.21863 112 ft 5 kts 37°
2026-04-22 15:42 30.78961 114.21894 113 ft 7 kts 40°
2026-04-22 15:42 30.79001 114.21917 114 ft 5 kts 357°
2026-04-22 15:43 30.79032 114.21889 115 ft 6 kts 310°
2026-04-22 15:43 30.79064 114.21846 113 ft 8 kts 310°
2026-04-22 15:43 30.79068 114.21798 117 ft 6 kts 240°
2026-04-22 15:43 30.79036 114.21759 116 ft 8 kts 223°
2026-04-22 15:44 30.78989 114.21711 115 ft 11 kts 221°
2026-04-22 15:44 30.78920 114.21642 116 ft 16 kts 221°
2026-04-22 15:44 30.78821 114.21539 115 ft 21 kts 221°
2026-04-22 15:44 30.78704 114.21419 115 ft 23 kts 221°
2026-04-22 15:45 30.78578 114.21291 113 ft 25 kts 222°
2026-04-22 15:45 30.78445 114.21155 111 ft 26 kts 221°
2026-04-22 15:45 30.78310 114.21016 111 ft 26 kts 221°
2026-04-22 15:45 30.78170 114.20874 111 ft 27 kts 223°
2026-04-22 15:46 30.78028 114.20728 110 ft 28 kts 221°
2026-04-22 15:46 30.77886 114.20583 109 ft 27 kts 221°
2026-04-22 15:46 30.77757 114.20452 108 ft 25 kts 221°
2026-04-22 15:46 30.77623 114.20315 107 ft 27 kts 221°
2026-04-22 15:47 30.77484 114.20173 106 ft 26 kts 222°
2026-04-22 15:47 30.77354 114.20040 105 ft 24 kts 221°
2026-04-22 15:47 30.77233 114.19915 103 ft 23 kts 221°
2026-04-22 15:47 30.77138 114.19815 104 ft 7 kts 233°
2026-04-22 15:48 30.77139 114.19764 102 ft 7 kts 295°
2026-04-22 15:48 30.77175 114.19716 103 ft 9 kts 313°
2026-04-22 15:48 30.77220 114.19662 104 ft 5 kts 329°
2026-04-22 15:48 30.77252 114.19671 103 ft 5 kts 41°
2026-04-22 15:49 30.77292 114.19712 104 ft 14 kts 42°
2026-04-22 15:49 30.77543 114.19968 104 ft 85 kts 41°
2026-04-22 15:49 30.78159 114.20597 112 ft 148 kts 41°
2026-04-22 15:49 30.79018 114.21466 550 ft 164 kts 41°
2026-04-22 15:50 30.79837 114.22313 1541 ft 156 kts 39°
2026-04-22 15:50 30.80677 114.23171 2182 ft 170 kts 39°
2026-04-22 15:50 30.81648 114.24162 2466 ft 200 kts 40°
2026-04-22 15:50 30.82762 114.25300 2724 ft 223 kts 40°
2026-04-22 15:51 30.83947 114.26513 3307 ft 229 kts 40°
2026-04-22 15:51 30.85149 114.27744 3957 ft 232 kts 39°
2026-04-22 15:51 30.86381 114.29008 4519 ft 244 kts 39°
2026-04-22 15:51 30.87695 114.30353 5093 ft 257 kts 39°
2026-04-22 15:52 30.89037 114.31730 5853 ft 262 kts 39°
2026-04-22 15:52 30.90411 114.33140 6648 ft 266 kts 39°
2026-04-22 15:52 30.91809 114.34575 7389 ft 270 kts 40°
2026-04-22 15:52 30.93230 114.36033 8152 ft 274 kts 40°
2026-04-22 15:53 30.94437 114.37771 8878 ft 282 kts 63°
2026-04-22 15:53 30.94995 114.39970 9671 ft 286 kts 78°
2026-04-22 15:53 30.95318 114.42285 10317 ft 295 kts 80°
2026-04-22 15:53 30.95626 114.44744 10498 ft 319 kts 80°
2026-04-22 15:54 30.95949 114.47369 10847 ft 334 kts 80°
2026-04-22 15:54 30.96287 114.50085 11432 ft 342 kts 80°
2026-04-22 15:54 30.96635 114.52839 12120 ft 346 kts 80°
2026-04-22 15:54 30.96994 114.55633 12775 ft 352 kts 80°
2026-04-22 15:55 30.97362 114.58472 13457 ft 357 kts 80°
2026-04-22 15:55 30.97738 114.61357 14102 ft 363 kts 80°
2026-04-22 15:55 30.98121 114.64288 14698 ft 369 kts 80°
2026-04-22 15:55 30.98510 114.67264 15310 ft 375 kts 80°
2026-04-22 15:56 30.98905 114.70293 15919 ft 381 kts 80°
2026-04-22 15:56 30.99305 114.73370 16530 ft 387 kts 80°
2026-04-22 15:56 30.99711 114.76493 17125 ft 393 kts 80°
2026-04-22 15:56 31.00122 114.79664 17709 ft 399 kts 80°
2026-04-22 15:57 31.00540 114.82894 18288 ft 405 kts 80°
2026-04-22 15:57 31.00963 114.86168 18796 ft 411 kts 80°
2026-04-22 15:57 31.01391 114.89484 19327 ft 416 kts 80°
2026-04-22 15:57 31.01841 114.92825 19847 ft 420 kts 78°
2026-04-22 15:58 31.02300 114.95016 20208 ft 421 kts 70°
2026-04-22 15:58 31.03640 114.99310 21109 ft 420 kts 67°
2026-04-22 15:58 31.04696 115.02492 21790 ft 421 kts 66°
2026-04-22 15:58 31.05396 115.04595 22211 ft 421 kts 67°
2026-04-22 15:59 31.06451 115.07801 22638 ft 425 kts 67°
2026-04-22 15:59 31.07496 115.11021 22614 ft 424 kts 67°
2026-04-22 15:59 31.08525 115.14234 22622 ft 422 kts 68°
2026-04-22 15:59 31.09548 115.17444 22636 ft 423 kts 68°
2026-04-22 16:00 31.10571 115.20663 22639 ft 423 kts 68°
2026-04-22 16:00 31.11593 115.23881 22629 ft 423 kts 68°
2026-04-22 16:00 31.12618 115.27106 22630 ft 424 kts 68°
2026-04-22 16:00 31.13645 115.30325 22625 ft 423 kts 68°
2026-04-22 16:01 31.14681 115.33536 22623 ft 422 kts 67°
2026-04-22 16:01 31.15720 115.36742 22628 ft 422 kts 67°
2026-04-22 16:01 31.16762 115.39956 22626 ft 422 kts 67°
2026-04-22 16:01 31.17797 115.43155 22634 ft 422 kts 67°
2026-04-22 16:02 31.18832 115.46359 22632 ft 422 kts 68°
2026-04-22 16:02 31.19866 115.49569 22635 ft 422 kts 68°
2026-04-22 16:02 31.20885 115.52737 22645 ft 422 kts 68°
2026-04-22 16:02 31.21915 115.55941 22633 ft 423 kts 68°
2026-04-22 16:03 31.22951 115.59172 22633 ft 423 kts 68°
2026-04-22 16:03 31.23980 115.62380 22635 ft 423 kts 68°
2026-04-22 16:03 31.25016 115.65615 22637 ft 423 kts 68°
2026-04-22 16:03 31.26048 115.68841 22636 ft 424 kts 68°
2026-04-22 16:04 31.27080 115.72065 22634 ft 423 kts 68°
2026-04-22 16:04 31.28112 115.75298 22627 ft 423 kts 68°
2026-04-22 16:04 31.29140 115.78519 22631 ft 422 kts 68°
2026-04-22 16:04 31.30166 115.81732 22636 ft 421 kts 68°
2026-04-22 16:05 31.31192 115.84941 22634 ft 421 kts 68°
2026-04-22 16:05 31.32214 115.88140 22645 ft 421 kts 68°
2026-04-22 16:05 31.33251 115.91352 22633 ft 421 kts 68°
2026-04-22 16:05 31.34292 115.94545 22623 ft 421 kts 68°
2026-04-22 16:06 31.35340 115.97747 22629 ft 420 kts 68°
2026-04-22 16:06 31.36382 116.00933 22634 ft 420 kts 68°
2026-04-22 16:06 31.37427 116.04133 22617 ft 420 kts 68°
2026-04-22 16:06 31.38465 116.07321 22637 ft 420 kts 68°
2026-04-22 16:07 31.39504 116.10516 22628 ft 419 kts 68°
2026-04-22 16:07 31.40540 116.13708 22632 ft 418 kts 68°
2026-04-22 16:07 31.41570 116.16887 22638 ft 418 kts 68°
2026-04-22 16:07 31.42603 116.20078 22640 ft 419 kts 68°
2026-04-22 16:08 31.43636 116.23272 22638 ft 419 kts 68°
2026-04-22 16:08 31.44667 116.26462 22626 ft 420 kts 68°
2026-04-22 16:08 31.45698 116.29655 22626 ft 420 kts 68°
2026-04-22 16:08 31.46729 116.32853 22625 ft 420 kts 68°
2026-04-22 16:09 31.47762 116.36059 22625 ft 419 kts 68°
2026-04-22 16:09 31.48789 116.39248 22627 ft 420 kts 68°
2026-04-22 16:09 31.49820 116.42454 22620 ft 420 kts 68°
2026-04-22 16:09 31.50846 116.45650 22625 ft 420 kts 68°
2026-04-22 16:10 31.51874 116.48853 22621 ft 420 kts 68°
2026-04-22 16:10 31.52887 116.52012 22620 ft 419 kts 68°
2026-04-22 16:10 31.53912 116.55213 22620 ft 419 kts 68°
2026-04-22 16:10 31.54935 116.58411 22622 ft 419 kts 68°
2026-04-22 16:11 31.55957 116.61606 22624 ft 419 kts 68°
2026-04-22 16:11 31.56979 116.64807 22623 ft 419 kts 68°
2026-04-22 16:11 31.58000 116.68009 22616 ft 419 kts 68°
2026-04-22 16:11 31.59019 116.71206 22623 ft 418 kts 68°
2026-04-22 16:12 31.60040 116.74414 22620 ft 418 kts 68°
2026-04-22 16:12 31.61057 116.77612 22624 ft 418 kts 68°
2026-04-22 16:12 31.62072 116.80804 22617 ft 418 kts 68°
2026-04-22 16:12 31.63088 116.84006 22619 ft 418 kts 68°
2026-04-22 16:13 31.64102 116.87204 22619 ft 418 kts 68°
2026-04-22 16:13 31.65116 116.90406 22617 ft 418 kts 68°
2026-04-22 16:13 31.66130 116.93611 22620 ft 418 kts 68°
2026-04-22 16:13 31.67142 116.96812 22622 ft 418 kts 68°
2026-04-22 16:14 31.68155 117.00018 22620 ft 419 kts 68°
2026-04-22 16:14 31.69142 117.03164 22606 ft 411 kts 68°
2026-04-22 16:14 31.70114 117.06294 22604 ft 405 kts 68°
2026-04-22 16:14 31.71071 117.09387 22608 ft 403 kts 68°
2026-04-22 16:15 31.72029 117.12485 22624 ft 404 kts 68°
2026-04-22 16:15 31.72991 117.15593 22390 ft 406 kts 68°
2026-04-22 16:15 31.73953 117.18703 22082 ft 402 kts 69°
2026-04-22 16:15 31.74907 117.21790 21700 ft 400 kts 69°
2026-04-22 16:16 31.75853 117.24853 21333 ft 397 kts 69°
2026-04-22 16:16 31.76515 117.27987 20932 ft 396 kts 87°
2026-04-22 16:16 31.76263 117.31167 20578 ft 389 kts 107°
2026-04-22 16:16 31.75234 117.34067 20199 ft 381 kts 126°
2026-04-22 16:17 31.73744 117.36613 19852 ft 376 kts 129°
2026-04-22 16:17 31.72216 117.39053 19477 ft 374 kts 130°
2026-04-22 16:17 31.70670 117.41499 19093 ft 373 kts 130°
2026-04-22 16:17 31.69139 117.43949 18731 ft 371 kts 129°
2026-04-22 16:18 31.67606 117.46430 18346 ft 370 kts 129°
2026-04-22 16:18 31.66127 117.48841 17921 ft 368 kts 129°
2026-04-22 16:18 31.64637 117.51281 17522 ft 366 kts 129°
2026-04-22 16:18 31.63156 117.53703 17126 ft 363 kts 129°
2026-04-22 16:19 31.61768 117.56170 16734 ft 364 kts 117°
2026-04-22 16:19 31.61073 117.59017 16372 ft 365 kts 96°
2026-04-22 16:19 31.61164 117.61981 16023 ft 363 kts 84°
2026-04-22 16:19 31.61453 117.64915 15647 ft 361 kts 83°
2026-04-22 16:20 31.61772 117.67829 15275 ft 359 kts 83°
2026-04-22 16:20 31.62090 117.70729 14903 ft 358 kts 83°
2026-04-22 16:20 31.62399 117.73622 14525 ft 356 kts 83°
2026-04-22 16:20 31.62697 117.76504 14150 ft 355 kts 83°
2026-04-22 16:21 31.62987 117.79385 13770 ft 354 kts 83°
2026-04-22 16:21 31.63271 117.82248 13368 ft 352 kts 83°
2026-04-22 16:21 31.63551 117.85098 12985 ft 350 kts 83°
2026-04-22 16:21 31.63827 117.87931 12604 ft 348 kts 84°
2026-04-22 16:22 31.64371 117.93531 11865 ft 343 kts 84°
2026-04-22 16:22 31.64639 117.96306 11500 ft 341 kts 84°
2026-04-22 16:22 31.64904 117.99057 11143 ft 338 kts 84°
2026-04-22 16:23 31.65427 118.04502 10439 ft 334 kts 84°
2026-04-22 16:23 31.65684 118.07184 10258 ft 326 kts 84°
2026-04-22 16:23 31.65934 118.09789 10103 ft 318 kts 84°
2026-04-22 16:24 31.66177 118.12337 9953 ft 309 kts 84°
2026-04-22 16:24 31.66645 118.17280 9261 ft 307 kts 84°
2026-04-22 16:24 31.66758 118.19798 8831 ft 309 kts 90°
2026-04-22 16:25 31.66759 118.22280 8514 ft 307 kts 91°
2026-04-22 16:25 31.66728 118.27240 7873 ft 293 kts 90°
2026-04-22 16:25 31.66724 118.29568 7586 ft 284 kts 90°
2026-04-22 16:26 31.66725 118.31886 7326 ft 275 kts 90°
2026-04-22 16:26 31.66730 118.34034 7214 ft 261 kts 90°
2026-04-22 16:26 31.66735 118.36113 7087 ft 248 kts 90°
2026-04-22 16:26 31.66741 118.38114 6975 ft 239 kts 90°
2026-04-22 16:27 31.66746 118.40049 6915 ft 243 kts 90°
2026-04-22 16:27 31.66670 118.42051 6753 ft 247 kts 104°
2026-04-22 16:27 31.66021 118.43901 6527 ft 244 kts 117°
2026-04-22 16:27 31.65292 118.45696 6280 ft 243 kts 116°
2026-04-22 16:28 31.64578 118.47492 6025 ft 242 kts 116°
2026-04-22 16:28 31.63870 118.49290 5771 ft 243 kts 116°
2026-04-22 16:28 31.63161 118.51091 5462 ft 245 kts 116°
2026-04-22 16:28 31.62446 118.52911 5199 ft 245 kts 115°
2026-04-22 16:29 31.61737 118.54715 4929 ft 240 kts 115°
2026-04-22 16:29 31.61055 118.56449 4690 ft 228 kts 116°
2026-04-22 16:29 31.60408 118.58098 4432 ft 216 kts 115°
2026-04-22 16:29 31.60110 118.59754 4173 ft 205 kts 83°
2026-04-22 16:30 31.60320 118.60805 4041 ft 195 kts 69°
2026-04-22 16:30 31.60966 118.62735 3795 ft 188 kts 68°
2026-04-22 16:30 31.61437 118.64154 3621 ft 186 kts 69°
2026-04-22 16:30 31.61900 118.65560 3414 ft 184 kts 69°
2026-04-22 16:31 31.62361 118.66957 3238 ft 183 kts 69°
2026-04-22 16:31 31.62818 118.68348 3040 ft 183 kts 69°
2026-04-22 16:31 31.63274 118.69717 2853 ft 181 kts 65°
2026-04-22 16:31 31.63899 118.70974 2651 ft 175 kts 55°
2026-04-22 16:32 31.64578 118.72115 2462 ft 165 kts 56°
2026-04-22 16:32 31.65181 118.73197 2413 ft 154 kts 58°
2026-04-22 16:32 31.65763 118.74281 2198 ft 156 kts 59°
2026-04-22 16:32 31.66333 118.75354 1976 ft 153 kts 59°
2026-04-22 16:33 31.66888 118.76398 1787 ft 148 kts 60°
2026-04-22 16:33 31.67426 118.77415 1591 ft 146 kts 60°
2026-04-22 16:33 31.67966 118.78433 1388 ft 148 kts 59°
2026-04-22 16:33 31.68281 118.79027 1266 ft 146 kts 59°
2026-04-22 16:34 31.68569 118.79569 1165 ft 145 kts 59°
2026-04-22 16:34 31.69103 118.80576 952 ft 146 kts 58°
2026-04-22 16:34 31.69644 118.81595 732 ft 147 kts 58°
2026-04-22 16:35 31.70186 118.82615 507 ft 146 kts 57°
2026-04-22 16:35 31.70705 118.83635 326 ft 146 kts 57°
2026-04-22 16:35 31.71247 118.84641 172 ft 147 kts 58°
2026-04-22 16:35 31.71789 118.85629 52 ft 132 kts 59°
2026-04-22 16:36 31.72157 118.86324 57 ft 69 kts 59°
2026-04-22 16:36 31.72340 118.86617 53 ft 29 kts 38°
2026-04-22 16:36 31.72456 118.86704 52 ft 12 kts 31°
2026-04-22 16:36 31.72491 118.86726 51 ft 4 kts 17°
2026-04-22 16:37 31.72515 118.86721 52 ft 4 kts 336°
2026-04-22 16:37 31.72535 118.86703 57 ft 4 kts 313°
2026-04-22 16:37 31.72548 118.86678 58 ft 4 kts 302°
2026-04-22 16:37 31.72560 118.86654 56 ft 3 kts 302°
2026-04-22 16:38 31.72579 118.86635 51 ft 4 kts 325°
2026-04-22 16:38 31.72607 118.86613 56 ft 6 kts 327°
2026-04-22 16:38 31.72647 118.86583 52 ft 8 kts 328°
2026-04-22 16:38 31.72697 118.86547 57 ft 9 kts 328°
2026-04-22 16:39 31.72753 118.86506 51 ft 10 kts 328°
2026-04-22 16:39 31.72810 118.86463 53 ft 10 kts 327°
2026-04-22 16:39 31.72871 118.86418 49 ft 11 kts 328°
2026-04-22 16:39 31.72940 118.86367 57 ft 12 kts 328°
2026-04-22 16:40 31.73011 118.86316 53 ft 12 kts 328°
2026-04-22 16:40 31.73079 118.86265 54 ft 11 kts 328°
2026-04-22 16:40 31.73211 118.86167 57 ft 11 kts 328°
2026-04-22 16:41 31.73282 118.86115 56 ft 13 kts 328°
2026-04-22 16:41 31.73364 118.86054 52 ft 15 kts 328°
2026-04-22 16:41 31.73464 118.85981 51 ft 19 kts 328°
2026-04-22 16:41 31.73587 118.85890 54 ft 23 kts 328°
2026-04-22 16:42 31.73696 118.85810 54 ft 13 kts 327°
2026-04-22 16:42 31.73742 118.85773 56 ft 10 kts 316°
2026-04-22 16:42 31.73749 118.85717 57 ft 7 kts 244°
2026-04-22 16:42 31.73724 118.85669 57 ft 7 kts 239°
2026-04-22 16:43 31.73699 118.85620 50 ft 7 kts 238°
2026-04-22 16:43 31.73673 118.85572 51 ft 8 kts 238°
2026-04-22 16:43 31.73635 118.85501 55 ft 12 kts 236°
2026-04-22 16:43 31.73579 118.85401 54 ft 17 kts 237°
2026-04-22 16:44 31.73505 118.85262 54 ft 22 kts 239°
2026-04-22 16:44 31.73421 118.85104 53 ft 23 kts 238°
2026-04-22 16:44 31.73338 118.84948 52 ft 22 kts 238°
2026-04-22 16:44 31.73272 118.84833 54 ft 11 kts 221°
2026-04-22 16:45 31.73223 118.84826 54 ft 7 kts 156°
2026-04-22 16:45 31.73183 118.84856 53 ft 7 kts 148°
2026-04-22 16:45 31.73134 118.84884 55 ft 8 kts 171°
2026-04-22 16:45 31.73102 118.84871 52 ft 3 kts 235°
2026-04-22 16:46 31.73088 118.84845 51 ft 6 kts 237°
2026-04-22 16:46 31.73052 118.84780 58 ft 13 kts 237°
2026-04-22 16:46 31.72994 118.84670 56 ft 17 kts 238°
2026-04-22 16:46 31.72947 118.84638 53 ft 5 kts 165°
2026-04-22 16:47 31.72920 118.84658 54 ft 5 kts 148°
2026-04-22 16:47 31.72881 118.84686 57 ft 9 kts 148°
2026-04-22 16:47 31.72815 118.84735 53 ft 14 kts 148°
2026-04-22 16:47 31.72722 118.84804 54 ft 18 kts 148°
2026-04-22 16:48 31.72613 118.84884 54 ft 12 kts 148°
2026-04-22 16:48 31.72566 118.84890 56 ft 6 kts 208°
2026-04-22 16:48 31.72541 118.84856 55 ft 6 kts 234°
2026-04-22 16:48 31.72518 118.84814 49 ft 7 kts 237°
2026-04-22 16:49 31.72487 118.84756 55 ft 10 kts 239°
2026-04-22 16:49 31.72449 118.84692 55 ft 5 kts 239°
2026-04-22 16:49 31.72451 118.84651 57 ft 5 kts 298°
2026-04-22 16:49 31.72481 118.84626 58 ft 5 kts 328°
2026-04-22 16:50 31.72511 118.84604 53 ft 5 kts 328°
2026-04-22 16:50 31.72532 118.84588 54 ft 1 kts 328°
2026-04-22 16:50 31.72533 118.84587 55 ft 0 kts 328°